Miscellaneous Local Product
Issued by NWS Hastings, NE

Home | Current Version | Previous Version | Graphics & Text | Print | Product List | Glossary On
Versions: 1 2 3 4 5 6 7 8 9 10 11 12 13 14 15 16 17 18 19 20 21 22 23 24 25 26 27 28 29 30 31 32 33 34 35 36 37 38 39 40 41 42 43 44 45 46 47 48 49 50
000
AXUS43 KGID 031602
MISGRI

GID CWA HOURLY WEATHER ROUNDUP
NATIONAL WEATHER SERVICE HASTINGS NE
1100 AM CDT THU SEP 03 2015

NOTE: "FAIR" INDICATES FEW OR NO CLOUDS BELOW 12,000 FEET WITH NO
SIGNIFICANT WEATHER AND/OR OBSTRUCTIONS TO VISIBILITY.

...SOUTH CENTRAL NEBRASKA...

CITY           SKY/WX    TMP DP  RH WIND       PRES   REMARKS
GRAND ISLAND   SUNNY     83  62  49 SW13      29.85R
HASTINGS       SUNNY     83  62  49 S15       29.84S
KEARNEY        SUNNY     82  61  47 S10       29.84S
ORD            SUNNY     81  62  52 SW7       29.82S
YORK           SUNNY     82  66  57 S12G17    29.85S
AURORA         SUNNY     82  64  54 S10       29.84S
LEXINGTON      SUNNY     82  62  50 S8        29.84S
HOLDREGE       SUNNY     80  59  48 S12       29.84S
HEBRON         SUNNY     83  60  46 S17       29.86S

...NEBRASKA PANHANDLE...

CITY           SKY/WX    TMP DP  RH WIND       PRES   REMARKS
CHADRON        SUNNY     88  49  25 VRB6      29.84F
ALLIANCE       MOSUNNY   82  51  34 S3        29.91S
SCOTTSBLUFF    MOSUNNY   77  53  43 VRB3      29.92S
SIDNEY         SUNNY     87  47  24 N6        29.95F

...WESTERN AND NORTH CENTRAL NEBRASKA...

CITY           SKY/WX    TMP DP  RH WIND       PRES   REMARKS
VALENTINE      SUNNY     92  57  30 S13       29.82F HX  90
AINSWORTH      SUNNY     89  64  44 SE8       29.84S HX  90
ONEILL         SUNNY     79  67  67 SE3       29.83F
BROKEN BOW     SUNNY     80  63  55 VRB5      29.84S
IMPERIAL       MOSUNNY   80  61  52 NE5       29.88R
NORTH PLATTE   MOSUNNY   77  62  59 SE5       29.84F
MCCOOK         MOSUNNY   82  59  45 E3        29.83F

...EASTERN NEBRASKA...

CITY           SKY/WX    TMP DP  RH WIND       PRES   REMARKS
NORFOLK        SUNNY     81  67  62 S9        29.84R
SO SIOUX CITY  SUNNY     80  70  71 S10       29.84S
TEKAMAH        SUNNY     83  70  64 S12       29.86S
COLUMBUS       SUNNY     81  64  57 S8        29.84F
ALBION         SUNNY     78  65  64 S6        29.84S
OMAHA EPPLEY   MOSUNNY   82  69  64 S13       29.87S
OFFUTT AFB     SUNNY     83  69  62 S12       29.87S
MILLARD        SUNNY     81  69  67 S12       29.86F
LINCOLN        SUNNY     85  66  53 S13       29.85F
NEBRASKA CITY  MOSUNNY   82  63  51 S14G20    29.89S
BEATRICE       SUNNY     83  66  56 S18       29.87S
FALLS CITY     SUNNY     86  68  54 S13       29.90S

...NORTHERN KANSAS...

CITY           SKY/WX    TMP DP  RH WIND       PRES   REMARKS
GOODLAND       MOSUNNY   85  47  26 VRB3      29.90R
HILL CITY      SUNNY     86  59  39 S12       29.84S
NORTON         SUNNY     84  55  37 S8        29.83S
PHILLIPSBURG   SUNNY     88  57  35 S13       29.84S
SMITH CENTER   SUNNY     84  57  39 S14       29.85F
HAYS           SUNNY     88  57  35 S20       29.85S
RUSSELL        SUNNY     88  59  37 S21       29.84S
CONCORDIA      SUNNY     84  64  50 S17G25    29.87R
SALINA         SUNNY     87  64  46 S20G28    29.88S
TOPEKA         MOSUNNY   84  67  56 S14       29.94S



USA.gov is the U.S. government's official web portal to all federal, state and local government web resources and services.